This is the latest recevied weather packets stored in our database for station/object K7DC. If no packets are shown the sender has not sent any weather packets the latest 10 day(s).
| Time | Temp. | Humidity | Pressure | Rain* | Wind** | Luminosity | Snow |
|---|---|---|---|---|---|---|---|
| 1787928837 | 30° C | 48% | 1017.3 hPa | 0 mm | - | 269 W/m² | - |
| 1787928537 | 28.33° C | 52% | 1017.6 hPa | 0 mm | - | 270 W/m² | - |
| 1787928236 | 27.78° C | 54% | 1017.4 hPa | 0 mm | - | 212 W/m² | - |
| 1787927935 | 27.78° C | 55% | 1017.4 hPa | 0 mm | - | 150 W/m² | - |
| 1787927629 | 27.78° C | 55% | 1017.2 hPa | 0 mm | - | 143 W/m² | - |
| 1787927324 | 27.22° C | 55% | 1017.3 hPa | 0 mm | - | 130 W/m² | - |
| 1787927021 | 27.78° C | 55% | 1017.4 hPa | 0 mm | - | 113 W/m² | - |
| 1787926720 | 28.89° C | 52% | 1017.3 hPa | 0 mm | - | 103 W/m² | - |
| 1787926419 | 29.44° C | 45% | 1017.3 hPa | 0 mm | - | 89 W/m² | - |
| 1787926113 | 29.44° C | 45% | 1017.2 hPa | 0 mm | - | 74 W/m² | - |
| 1787925813 | 29.44° C | 42% | 1017.1 hPa | 0 mm | - | 67 W/m² | - |
| 1787925512 | 28.89° C | 44% | 1017 hPa | 0 mm | - | 66 W/m² | - |
| 1787925207 | 28.33° C | 45% | 1017.1 hPa | 0 mm | - | 68 W/m² | - |
| 1787924906 | 28.33° C | 44% | 1017.1 hPa | 0 mm | - | 51 W/m² | - |
| 1787924601 | 28.33° C | 46% | 1017 hPa | 0 mm | - | 40 W/m² | - |
| 1787924296 | 28.33° C | 45% | 1017 hPa | 0 mm | - | 37 W/m² | - |
| 1787923992 | 27.78° C | 45% | 1017.1 hPa | 0 mm | - | 34 W/m² | - |
| 1787923692 | 27.78° C | 47% | 1016.9 hPa | 0 mm | - | 30 W/m² | - |
| 1787923387 | 27.78° C | 46% | 1016.9 hPa | 0 mm | - | 24 W/m² | - |
| 1787923082 | 27.78° C | 46% | 1016.9 hPa | 0 mm | - | 20 W/m² | - |
| 1787922776 | 27.78° C | 46% | 1016.7 hPa | 0 mm | - | 15 W/m² | - |
| 1787922476 | 27.78° C | 45% | 1016.7 hPa | 0 mm | - | 11 W/m² | - |
| 1787922175 | 27.78° C | 45% | 1016.5 hPa | 0 mm | - | 7 W/m² | - |
| 1787921872 | 27.78° C | 45% | 1016.8 hPa | 0 mm | - | 4 W/m² | - |
| 1787921568 | 27.78° C | 44% | 1016.6 hPa | 0 mm | - | 2 W/m² | - |
* Rain latest hour (hover to see other rain measurements)
** Current wind speed in m/s (hover to see current wind gust speed)